Weather in Chornukhy

Ukraine / Poltava Region     50˚16′23″N   32˚56′18″E
temp.,
°C
wind,
m/s
gust,
m/s
humid.,
%
clouds,
%
prec.,
mm/h
press.,
hPa
HPBL,
m
2 december, wed
wed223:00e5892100 0.0 1028476
02:00e4897100 0.2 1028487
05:00−1˚e5895100 0.4 1028481
08:00−2˚ese589098 0.6 1028411
11:00−2˚ese468193 0.0 1029429
14:00−1˚ese468994 0.1 1028446
17:00−1˚ese479298 0.1 1028414
20:00−1˚ese589599 0.4 1028410
3 december, thu
thu323:00−1˚ese5794100 0.5 1028398
02:00−2˚ese479497 0.7 1028339
05:00−2˚ese3696100 0.6 1027300
08:00−1˚ese479598 0.8 1027287
11:00+1˚ese469493 0.0 1027230
14:00+1˚ese369593 0.0 1026251
17:00+1˚e479799 0.0 1026219
20:00+2˚ese589899 0.1 1026240
4 december, fri
fri423:00+1˚ese4898100 0.1 1026260
02:00+1˚ese389895 0.1 1026253
05:00+1˚ese599788 0.0 1025281
08:00+1˚ese5109689 0.0 1026310
11:00+2˚se5109397 0.0 1026428
14:00+3˚ese699098 0.0 1026452
17:00+2˚ese71091100 0.0 1026486
20:00+2˚se61090100 0.0 1027619
5 december, sat
sat523:00+2˚se61089100 0.0 1027577
02:00+2˚ese61088100 0.0 1027480
05:00+1˚ese5108989 0.0 1027478
08:00+1˚ese5108887 0.0 1029524
11:00+2˚ese698385 0.0 1029546
14:00+2˚ese588184 0.0 1029545
17:00+1˚ese6108486 0.0 1030524
20:00−1˚ese6108387 0.0 1031443
6 december, sun
sun623:00−2˚ese6979100 0.0 1031432
02:00−3˚ese697467 0.0 1032406
05:00−4˚ese610700 0.0 1032359
08:00−4˚ese611600 0.0 1032369
11:00−3˚ese710470 0.0 1032434
14:00−2˚e611440 0.0 1031460
17:00−4˚e712510 0.0 1031435
20:00−5˚ese712560 0.0 1031449